When you browse on this site, cookies collect data to enhance your experience and personalize the content and advertising you see.
Visit our Privacy Policy to learn more. By continuing to use the site, you agree to this use of cookies and data.
  • In United Kingdom
  • List of Countries
  • For 7 days
  • Water Temperature
  • Weather Map
  • Weather Widgets
  • user-avatar
    Login

    Hourly Weather Chernomorec

    Today, 22 October, Tuesday

    Time Temperature Precipitation Wind Pressure Humidity
    00:00 +15°C° 0 mm 1 mps 766 mmHg 94%
    01:00 +15°C° 0 mm 1 mps 766 mmHg 94%
    02:00 +15°C° 0 mm 2 mps 766 mmHg 94%
    03:00 +15°C° 0 mm 2 mps 766 mmHg 94%
    04:00 +14°C° 0 mm 2 mps 766 mmHg 94%
    05:00 +14°C° 0 mm 2 mps 766 mmHg 94%
    06:00 +15°C° 0 mm 2 mps 766 mmHg 92%
    07:00 +16°C° 0 mm 2 mps 767 mmHg 90%
    08:00 +17°C° 0 mm 3 mps 767 mmHg 86%
    09:00 +18°C° 0 mm 3 mps 767 mmHg 82%
    10:00 +19°C° 0 mm 3 mps 767 mmHg 78%
    11:00 +20°C° 0 mm 3 mps 767 mmHg 74%
    12:00 +20°C° 0 mm 4 mps 767 mmHg 70%
    13:00 +21°C° 0 mm 4 mps 767 mmHg 67%
    14:00 +22°C° 0 mm 4 mps 766 mmHg 63%
    15:00 +21°C° 0 mm 4 mps 766 mmHg 69%
    16:00 +20°C° 0 mm 4 mps 766 mmHg 75%
    17:00 +18°C° 0 mm 3 mps 766 mmHg 81%
    18:00 +18°C° 0 mm 3 mps 766 mmHg 85%
    19:00 +17°C° 0 mm 3 mps 766 mmHg 88%
    20:00 +16°C° 0 mm 3 mps 767 mmHg 92%
    21:00 +16°C° 0 mm 3 mps 767 mmHg 92%
    22:00 +16°C° 0 mm 3 mps 767 mmHg 93%
    23:00 +15°C° 0 mm 2 mps 767 mmHg 93%

    Tomorrow, 23 October, Wednesday

    Time Temperature Precipitation Wind Pressure Humidity
    00:00 +15°C° 0 mm 2 mps 767 mmHg 93%
    01:00 +15°C° 0 mm 2 mps 767 mmHg 93%
    02:00 +14°C° 0 mm 2 mps 766 mmHg 92%
    03:00 +14°C° 0 mm 2 mps 766 mmHg 93%
    04:00 +14°C° 0 mm 2 mps 766 mmHg 93%
    05:00 +14°C° 0 mm 2 mps 766 mmHg 93%
    06:00 +15°C° 0 mm 2 mps 766 mmHg 91%
    07:00 +15°C° 0 mm 2 mps 766 mmHg 88%
    08:00 +16°C° 0 mm 2 mps 766 mmHg 85%
    09:00 +18°C° 0 mm 2 mps 766 mmHg 77%
    10:00 +19°C° 0 mm 2 mps 766 mmHg 69%
    11:00 +21°C° 0 mm 2 mps 766 mmHg 60%
    12:00 +22°C° 0 mm 3 mps 766 mmHg 58%
    13:00 +22°C° 0 mm 3 mps 766 mmHg 55%
    14:00 +23°C° 0 mm 4 mps 765 mmHg 52%
    15:00 +22°C° 0 mm 4 mps 765 mmHg 59%
    16:00 +20°C° 0 mm 3 mps 765 mmHg 66%
    17:00 +19°C° 0 mm 3 mps 765 mmHg 73%
    18:00 +18°C° 0 mm 3 mps 765 mmHg 77%
    19:00 +17°C° 0 mm 2 mps 765 mmHg 81%
    20:00 +16°C° 0 mm 2 mps 766 mmHg 86%
    21:00 +15°C° 0 mm 2 mps 765 mmHg 86%
    22:00 +15°C° 0 mm 1 mps 765 mmHg 86%
    23:00 +15°C° 0 mm 1 mps 765 mmHg 86%

    Day after tomorrow, 24 October, Thursday

    Time Temperature Precipitation Wind Pressure Humidity
    00:00 +14°C° 0 mm 1 mps 765 mmHg 86%
    01:00 +14°C° 0 mm 1 mps 765 mmHg 85%
    02:00 +14°C° 0 mm 1 mps 765 mmHg 85%
    03:00 +14°C° 0 mm 1 mps 765 mmHg 85%
    04:00 +14°C° 0 mm 1 mps 765 mmHg 84%
    05:00 +13°C° 0 mm 1 mps 765 mmHg 84%
    06:00 +14°C° 0 mm 1 mps 765 mmHg 81%
    07:00 +15°C° 0 mm 1 mps 765 mmHg 78%
    08:00 +16°C° 0 mm 1 mps 765 mmHg 74%
    09:00 +19°C° 0 mm 1 mps 764 mmHg 66%
    10:00 +21°C° 0 mm 1 mps 764 mmHg 58%
    11:00 +21°C° 0 mm 2 mps 764 mmHg 50%
    12:00 +23°C° 0 mm 2 mps 764 mmHg 48%
    13:00 +23°C° 0 mm 2 mps 764 mmHg 46%
    14:00 +24°C° 0 mm 3 mps 764 mmHg 44%
    15:00 +21°C° 0 mm 2 mps 763 mmHg 52%
    16:00 +19°C° 0 mm 2 mps 763 mmHg 61%
    17:00 +18°C° 0 mm 2 mps 763 mmHg 69%
    18:00 +17°C° 0 mm 2 mps 763 mmHg 72%
    19:00 +16°C° 0 mm 1 mps 763 mmHg 75%
    20:00 +15°C° 0 mm 1 mps 763 mmHg 78%
    21:00 +15°C° 0 mm 1 mps 763 mmHg 79%
    22:00 +14°C° 0 mm 1 mps 763 mmHg 80%
    23:00 +14°C° 0 mm 1 mps 763 mmHg 81%

    25 October, Friday

    Time Temperature Precipitation Wind Pressure Humidity
    00:00 +14°C° 0 mm 1 mps 763 mmHg 82%
    01:00 +14°C° 0 mm 1 mps 763 mmHg 82%
    02:00 +14°C° 0 mm 1 mps 763 mmHg 82%
    03:00 +13°C° 0 mm 1 mps 763 mmHg 83%
    04:00 +13°C° 0 mm 1 mps 763 mmHg 83%
    05:00 +13°C° 0 mm 1 mps 763 mmHg 84%
    06:00 +14°C° 0 mm 1 mps 763 mmHg 81%
    07:00 +15°C° 0 mm 1 mps 763 mmHg 78%
    08:00 +16°C° 0 mm 1 mps 763 mmHg 75%
    09:00 +19°C° 0 mm 1 mps 763 mmHg 68%
    10:00 +21°C° 0 mm 1 mps 763 mmHg 60%
    11:00 +23°C° 0 mm 1 mps 763 mmHg 53%
    12:00 +23°C° 0 mm 2 mps 763 mmHg 50%
    13:00 +24°C° 0 mm 2 mps 763 mmHg 48%
    14:00 +24°C° 0 mm 2 mps 763 mmHg 46%
    15:00 +23°C° 0 mm 2 mps 763 mmHg 55%
    16:00 +20°C° 0 mm 2 mps 763 mmHg 64%
    17:00 +18°C° 0 mm 2 mps 763 mmHg 72%
    18:00 +17°C° 0 mm 2 mps 763 mmHg 77%
    19:00 +16°C° 0 mm 1 mps 763 mmHg 81%
    20:00 +15°C° 0 mm 1 mps 764 mmHg 85%
    21:00 +15°C° 0 mm 1 mps 764 mmHg 86%
    22:00 +15°C° 0 mm 1 mps 764 mmHg 86%
    23:00 +14°C° 0 mm 0 mps 764 mmHg 86%

    26 October, Saturday

    Time Temperature Precipitation Wind Pressure Humidity
    00:00 +14°C° 0 mm 1 mps 764 mmHg 86%
    01:00 +14°C° 0 mm 1 mps 764 mmHg 85%
    02:00 +14°C° 0 mm 1 mps 764 mmHg 85%
    03:00 +14°C° 0 mm 1 mps 764 mmHg 85%
    04:00 +14°C° 0 mm 1 mps 764 mmHg 84%
    05:00 +13°C° 0 mm 1 mps 764 mmHg 84%
    06:00 +14°C° 0 mm 1 mps 765 mmHg 81%
    07:00 +15°C° 0 mm 1 mps 765 mmHg 77%
    08:00 +16°C° 0 mm 1 mps 765 mmHg 74%
    09:00 +19°C° 0 mm 1 mps 765 mmHg 66%
    10:00 +21°C° 0 mm 1 mps 765 mmHg 59%
    11:00 +23°C° 0 mm 1 mps 765 mmHg 51%
    12:00 +23°C° 0 mm 1 mps 765 mmHg 49%
    13:00 +24°C° 0 mm 1 mps 764 mmHg 46%
    14:00 +24°C° 0 mm 1 mps 764 mmHg 44%
    15:00 +23°C° 0 mm 2 mps 764 mmHg 52%
    16:00 +20°C° 0 mm 2 mps 764 mmHg 61%
    17:00 +18°C° 0 mm 2 mps 763 mmHg 70%
    18:00 +17°C° 0 mm 2 mps 763 mmHg 73%
    19:00 +17°C° 0 mm 2 mps 763 mmHg 77%
    20:00 +16°C° 0 mm 1 mps 764 mmHg 80%
    21:00 +15°C° 0 mm 1 mps 763 mmHg 79%
    22:00 +15°C° 0 mm 1 mps 763 mmHg 79%
    23:00 +15°C° 0 mm 1 mps 763 mmHg 78%

    27 October, Sunday

    Time Temperature Precipitation Wind Pressure Humidity
    00:00 +15°C° 0 mm 1 mps 763 mmHg 76%
    01:00 +15°C° 0 mm 1 mps 763 mmHg 73%
    02:00 +15°C° 0 mm 1 mps 763 mmHg 71%
    03:00 +14°C° 0 mm 1 mps 763 mmHg 70%
    04:00 +14°C° 0 mm 2 mps 763 mmHg 68%
    05:00 +14°C° 0 mm 2 mps 763 mmHg 67%
    06:00 +15°C° 0 mm 2 mps 762 mmHg 63%
    07:00 +16°C° 0 mm 2 mps 762 mmHg 59%
    08:00 +17°C° 0 mm 2 mps 762 mmHg 56%
    09:00 +19°C° 0 mm 2 mps 762 mmHg 48%
    10:00 +21°C° 0 mm 2 mps 762 mmHg 41%
    11:00 +25°C° 0 mm 2 mps 762 mmHg 34%
    12:00 +25°C° 0 mm 2 mps 762 mmHg 32%
    13:00 +26°C° 0 mm 1 mps 762 mmHg 30%
    14:00 +27°C° 0 mm 1 mps 761 mmHg 27%
    15:00 +25°C° 0 mm 1 mps 761 mmHg 33%
    16:00 +23°C° 0 mm 1 mps 761 mmHg 39%
    17:00 +20°C° 0 mm 2 mps 760 mmHg 44%
    18:00 +19°C° 0 mm 2 mps 761 mmHg 46%
    19:00 +19°C° 0 mm 2 mps 761 mmHg 47%
    20:00 +19°C° 0 mm 1 mps 761 mmHg 49%
    21:00 +18°C° 0 mm 2 mps 761 mmHg 47%
    22:00 +18°C° 0 mm 2 mps 761 mmHg 45%
    23:00 +17°C° 0 mm 2 mps 762 mmHg 44%

    28 October, Monday

    Time Temperature Precipitation Wind Pressure Humidity
    00:00 +17°C° 0 mm 2 mps 761 mmHg 44%
    01:00 +17°C° 0 mm 2 mps 761 mmHg 44%
    02:00 +16°C° 0 mm 2 mps 761 mmHg 45%
    03:00 +16°C° 0 mm 2 mps 761 mmHg 46%
    04:00 +16°C° 0 mm 2 mps 761 mmHg 46%
    05:00 +15°C° 0 mm 2 mps 761 mmHg 47%
    06:00 +16°C° 0 mm 2 mps 762 mmHg 47%
    07:00 +16°C° 0 mm 2 mps 762 mmHg 47%
    08:00 +17°C° 0 mm 2 mps 762 mmHg 47%
    09:00 +19°C° 0 mm 2 mps 762 mmHg 43%
    10:00 +20°C° 0 mm 2 mps 762 mmHg 40%
    11:00 +23°C° 0 mm 2 mps 763 mmHg 37%
    12:00 +23°C° 0 mm 2 mps 762 mmHg 37%
    13:00 +24°C° 0 mm 2 mps 762 mmHg 38%
    14:00 +24°C° 0 mm 3 mps 762 mmHg 38%
    15:00 +21°C° 0 mm 3 mps 762 mmHg 47%
    16:00 +19°C° 0 mm 3 mps 762 mmHg 57%
    17:00 +18°C° 0 mm 3 mps 761 mmHg 66%
    18:00 +17°C° 0 mm 2 mps 761 mmHg 71%
    19:00 +16°C° 0 mm 2 mps 761 mmHg 77%
    20:00 +15°C° 0 mm 2 mps 762 mmHg 82%
    21:00 +15°C° 0 mm 1 mps 762 mmHg 82%
    22:00 +15°C° 0 mm 1 mps 762 mmHg 81%
    23:00 +15°C° 0 mm 1 mps 762 mmHg 80%
    Show more